Probability
0 0 0 0 0 0 0 0 0 0 0 0 0 0 0 0 0 0 0 0 0 0 0 0 0 0 0 0 1 2 2 1 0 0 0 1 3 4
0 0 0 0 0 0 0 0 0 0 0 0 0 0 0 0 0 0 0 0 0 0 0 0 0 0 0 0 1 2 2 1 0 0 0 0 1 2
0 0 0 0 0 0 0 0 0 0 0 0 0 0 0 0 0 0 0 0 0 0 0 0 0 0 0 0 0 1 1 0 0 0 0 0 0 1
0 0 0 0 0 0 0 0 0 0 0 0 0 0 0 0 0 0 0 0 0 0 0 0 0 0 0 0 0 0 0 0 0 0 0 0 0 1
0 0 0 0 0 0 0 0 0 0 0 0 0 0 0 0 0 0 0 0 0 0 0 0 0 0 0 0 0 0 0 0 0 0 0 0 0 1
0 0 0 0 0 0 0 0 0 0 0 0 0 0 0 0 0 0 0 0 0 0 0 0 0 0 0 0 0 0 0 0 0 0 0 0 0 0
0 0 0 0 0 0 0 0 0 0 0 0 0 0 0 0 0 0 0 0 0 0 0 0 0 0 0 0 0 0 0 0 0 0 0 0 0 0
0 0 0 0 0 0 0 0 0 0 0 0 0 0 0 0 0 0 0 0 0 0 0 0 0 0 0 0 0 0 0 0 0 0 0 0 0 0
0 0 0 0 0 0 0 0 0 0 0 0 0 0 0 0 0 0 0 0 0 0 0 0 0 0 0 0 0 0 0 0 0 0 0 0 0 0
0 0 0 0 0 0 0 0 0 0 0 0 0 0 0 0 0 0 0 0 0 0 0 0 0 0 0 0 0 0 0 0 0 0 0 0 0 0
0 0 0 0 0 0 0 0 0 0 0 0 0 0 0 0 0 0 0 0 0 0 0 0 0 0 0 0 0 0 0 0 0 0 0 0 0 0
0 0 0 0 0 0 0 0 0 0 0 0 0 0 0 0 0 0 0 0 0 0 0 0 0 0 0 0 0 0 0 0 0 0 0 0 0 0
0 0 0 0 0 0 0 0 0 0 0 0 0 0 0 0 0 0 0 0 0 0 0 0 0 0 0 0 0 0 0 0 0 0 0 0 0 0
0 0 0 0 0 0 0 0 0 0 0 0 0 0 0 0 0 0 0 0 0 0 0 0 0 0 0 0 0 0 0 0 0 0 0 0 0 0
0 0 0 0 0 0 0 0 0 0 0 0 0 0 0 0 0 0 0 0 0 0 0 0 0 0 0 0 0 0 0 0 0 0 0 0 0 0
0 0 0 0 0 0 0 0 0 0 0 0 0 0 0 0 0 0 0 0 0 0 0 0 0 0 0 0 0 0 0 0 0 0 0 0 0 0
0 0 0 0 0 0 0 0 0 0 0 0 0 0 0 0 0 0 0 0 0 0 0 0 0 0 0 0 0 0 0 0 0 0 0 0 0 0
0 0 0 0 0 0 0 0 0 0 0 0 0 0 0 0 0 0 0 0 0 0 0 0 0 0 0 0 0 0 0 0 0 0 0 0 0 0
0 0 0 0 0 0 0 0 0 0 0 0 0 0 0 0 0 0 0 0 0 0 0 0 0 0 0 0 0 0 0 0 0 0 0 0 0 0
0 0 0 0 0 0 0 0 0 0 0 0 0 0 0 0 0 0 0 0 0 0 0 0 0 0 0 0 0 0 0 0 0 0 0 0 0 0
0 0 0 0 0 0 0 0 0 0 0 0 0 0 0 0 0 0 0 0 0 0 0 0 0 0 0 0 0 0 0 0 0 0 0 0 0 0
0 0 0 0 0 0 0 0 0 0 0 0 0 0 0 0 0 0 0 0 0 0 0 0 0 0 0 0 0 0 0 0 0 0 0 0 0 0
0 0 0 0 0 0 0 0 0 0 0 0 0 0 0 0 0 0 0 0 0 0 0 0 0 0 0 0 0 0 0 0 0 0 0 0 0 0
Wind_Speed
3 3 3 2 2 2 2 2 3 3 3 3 3 3 3 3 5 4 4 7 9 9 9 9 9 10 11 10 10 10 10 10 11 11 12 13 14 15
2 3 3 2 2 2 2 2 3 3 3 3 3 4 3 3 4 3 4 8 8 9 9 9 9 10 10 10 10 10 10 10 11 12 12 12 13 14
3 3 4 3 2 2 2 1 2 2 3 3 3 3 3 3 4 3 4 4 4 8 9 9 10 10 10 11 11 11 10 10 11 12 12 12 12 13
3 3 4 3 2 2 2 2 2 2 3 4 3 2 3 3 3 4 4 4 4 6 9 9 9 10 11 11 11 11 11 10 10 11 11 12 12 12
3 3 4 2 3 2 2 2 3 2 2 3 4 3 2 2 2 3 4 3 4 4 6 8 9 10 10 10 11 11 11 11 11 11 11 11 12 12
3 3 3 3 3 3 3 3 3 2 2 2 3 3 3 3 1 2 3 3 3 3 3 4 6 8 9 10 10 11 11 11 11 11 11 12 12 12
3 3 3 3 4 3 2 3 2 2 2 2 3 2 3 2 2 2 3 3 3 2 2 3 3 3 5 7 9 11 11 12 12 12 12 12 12 12
3 4 4 4 5 5 5 5 4 4 4 3 3 3 4 4 3 2 2 2 3 2 1 3 2 3 4 4 8 11 12 12 12 13 13 13 13 13
3 4 4 4 4 4 5 6 6 7 7 5 4 5 5 4 3 3 3 3 4 3 1 4 3 4 4 5 8 10 10 11 12 12 13 13 13 13
3 3 3 4 5 4 4 5 5 5 5 4 5 6 6 5 4 4 4 3 4 3 3 3 3 3 4 3 6 9 10 10 11 11 12 12 12 13
4 4 3 4 6 5 3 4 6 6 6 5 6 7 8 8 6 2 2 2 3 4 2 3 3 3 3 3 5 8 9 10 10 11 11 11 12 11
4 4 5 5 7 5 3 3 5 6 6 6 5 6 5 6 7 5 4 3 3 4 3 2 2 1 2 3 2 3 4 7 9 9 10 10 10 6
4 4 4 7 7 7 5 3 6 6 5 5 5 4 4 3 4 4 5 5 4 5 4 2 2 2 2 3 2 2 3 3 3 4 7 9 10 9
4 4 5 8 9 8 5 6 7 5 3 3 3 3 3 4 4 4 4 5 6 7 6 4 3 3 2 2 3 2 2 3 3 3 3 5 8 10
3 6 8 9 9 6 7 8 5 2 2 2 3 4 4 4 3 3 3 3 4 5 5 4 4 3 3 3 3 3 2 2 3 3 3 4 4 5
4 6 7 7 6 6 6 5 3 2 2 3 3 4 3 3 3 2 2 2 2 4 4 3 4 4 3 4 4 4 3 2 2 3 3 3 3 5
4 3 3 4 5 4 4 3 3 2 2 2 2 3 3 3 3 3 2 2 1 3 4 3 2 2 4 3 3 4 4 3 3 3 2 3 3 5
2 2 3 3 4 4 4 4 3 3 3 2 2 2 3 3 3 3 2 2 2 3 3 3 2 2 2 3 4 4 3 3 3 3 3 3 3 3
2 2 3 3 3 3 3 3 3 3 3 2 2 3 2 3 3 3 3 3 3 3 3 2 1 1 2 3 4 4 3 3 2 2 3 4 4 4
1 2 3 3 3 3 3 3 3 4 3 3 3 3 3 2 3 3 3 3 3 3 3 3 2 2 3 3 3 3 4 3 2 3 3 2 3 3
2 2 2 2 3 3 3 2 2 3 4 3 3 4 3 3 3 3 4 5 4 3 3 4 4 5 2 1 1 3 3 3 4 3 2 2 1 1
2 2 2 2 2 3 3 3 3 3 4 4 4 4 4 3 4 5 4 4 3 3 3 3 4 3 1 0 2 3 3 3 2 3 3 4 3 3
2 2 2 2 2 2 2 3 3 3 4 4 4 4 4 4 4 4 4 4 3 3 3 3 3 2 2 1 2 2 3 3 2 1 2 3 5 5
Wind_Direction
274 272 263 259 254 244 222 200 199 249 271 268 273 277 268 261 261 251 244 247 244 242 241 240 240 239 238 238 237 235 235 236 234 232 233 231 229 225
279 284 279 270 267 256 235 223 204 212 247 254 252 272 281 284 277 264 256 259 251 246 244 242 241 240 239 237 236 233 232 233 231 230 229 229 228 227
292 287 283 277 270 269 256 239 229 207 238 268 262 275 277 281 286 280 274 265 259 252 247 244 241 241 241 241 238 234 231 231 231 229 228 227 227 227
294 300 295 291 281 273 265 258 247 226 219 255 275 277 270 267 274 282 285 278 265 258 249 245 242 240 239 241 238 233 230 229 229 227 225 224 224 223
276 275 277 280 285 280 271 267 264 261 231 237 267 269 271 273 287 291 290 289 281 270 255 246 243 241 239 239 236 231 227 226 225 224 223 224 224 223
282 274 271 263 265 273 276 269 265 273 270 260 265 275 275 279 268 279 298 294 288 284 278 263 250 247 244 243 239 232 227 226 225 223 221 221 221 221
305 296 283 281 281 274 271 265 260 261 269 264 266 280 283 290 278 265 278 292 290 266 273 277 266 258 249 243 239 235 229 226 226 225 222 221 221 221
303 304 302 300 305 304 295 281 257 241 247 246 254 257 266 264 263 262 267 292 290 268 245 276 250 255 251 239 237 235 230 226 225 224 221 221 221 220
291 299 306 313 312 300 298 299 288 273 248 228 236 246 249 249 248 262 260 260 261 256 232 276 265 260 255 247 239 233 231 228 224 222 221 220 220 218
293 289 288 295 300 294 296 302 296 288 270 241 234 245 246 246 236 238 246 270 280 268 208 252 266 256 264 255 244 234 231 229 227 226 224 220 218 218
301 297 288 286 294 303 299 298 302 300 295 280 260 260 262 260 251 244 255 250 281 281 220 214 257 262 266 261 253 237 231 230 229 227 226 222 218 214
308 305 299 297 305 311 295 288 295 295 308 318 311 302 284 274 261 223 218 223 250 272 250 209 253 257 288 272 250 240 233 237 236 235 230 222 211 201
308 308 307 315 314 312 302 272 269 283 296 298 299 300 299 286 274 248 223 213 226 247 243 199 233 224 224 278 287 247 226 231 228 232 229 219 203 193
284 289 295 311 315 311 304 291 296 300 295 300 299 294 290 289 283 274 253 235 230 237 243 212 218 224 226 254 271 272 247 229 214 217 216 209 207 205
288 299 310 315 316 311 309 311 312 309 301 296 292 284 273 274 287 294 291 274 267 257 248 224 219 228 223 235 247 251 264 257 219 217 211 200 198 190
326 320 322 322 321 309 315 321 313 291 282 283 290 291 297 302 299 293 290 304 307 302 288 256 232 222 239 242 236 251 239 239 236 215 211 213 206 199
327 337 346 343 339 336 333 321 316 324 317 307 307 311 312 316 309 308 294 297 287 290 301 301 272 241 233 233 244 250 248 241 234 219 201 219 225 213
351 342 334 329 322 321 321 322 323 328 320 312 308 313 318 320 317 318 317 301 286 281 285 289 307 334 331 290 233 240 249 247 243 219 203 212 237 224
14 332 325 321 320 322 325 329 332 329 327 328 322 318 323 325 322 323 325 318 307 299 294 292 287 249 284 291 290 237 225 249 239 227 215 210 226 232
351 331 326 322 323 327 332 334 335 338 340 339 335 331 329 325 324 325 321 313 310 308 308 307 293 258 239 245 263 279 235 223 227 234 233 223 236 243
336 333 322 318 324 330 335 342 349 346 341 337 335 333 331 328 323 318 315 314 311 311 313 304 292 289 268 244 293 298 292 243 216 213 211 200 219 228
328 333 329 335 333 335 341 348 352 349 343 338 331 327 323 320 318 317 315 313 311 307 299 295 308 325 351 280 281 284 294 306 277 253 222 196 186 200
322 336 343 346 349 351 350 349 351 344 340 336 330 324 322 320 316 316 316 317 320 318 317 318 328 332 313 282 282 287 295 300 306 316 291 266 238 235